{"data":{"norad_id":67793,"epoch":"2026-05-25T04:16:37.305120Z","epoch_age_seconds":59555,"freshness":"FRESH","line1":"1 67793U 26030AF  26145.17820955 -.00314551  00000+0 -95966-2 0  9995","line2":"2 67793  51.8870 210.5315 0011128 304.6281  55.3655 15.34593033 16841","mean_motion":15.34593033,"eccentricity":0.0011128,"inclination_deg":51.887,"raan_deg":210.5315,"arg_perigee_deg":304.6281,"mean_anomaly_deg":55.3655,"bstar":-0.0095966,"rev_number":1684,"period_min":93.835953183296,"perigee_km":454.51771695856,"apogee_km":469.74141422695,"semimajor_km":6840.2665655928,"source":"CELESTRAK","updated_at":"2026-05-25T13:38:07.263942Z"}}